STARLINK-34316, 64707

Orbit data source: Space-Track

STARLINK-34316, 64707 is a payload satellite owned by SpaceX/Seattle (US) in LEO that was launched on Sat, 28 Jun 2025 UTC via an FALCON 9 launch vehicle from the Air Force Western Test Range (AFWTR). Payload-class satellites include a variety of spacecraft equipped with specific instruments for various scientific and technological missions. These include communications satellites like Starlink; space stations such as the ISS; scientific satellites like the Hubble; Earth observation satellites from companies like Planet Labs, Umbra, and HawkEye 360; GPS; miniature CubeSats for education and research; and military/defense satellites.

Not visible in the next 10 days
Identifier
64707, 2025-142M
Orbit
LEO
Last TLE update
9 hours ago
Origin
Manufacturer
SpaceX/Seattle
Mission
Operational spacecraft
Bus & Motor
STARLINK V2MO, Unknown motor
Mass
575 kg wet, ~530 kg dry
Launch date (UTC)
2025-06-28 (1 week ago)
Launch vehicle
FALCON 9
Launch site
Air Force Western Test Range (AFWTR)
Object type
Payload
Rocket body
Debris
Shape & HBR
Unknown
Radar Cross Section
RCS unknown

Expand to show TLE details & history

TLE from 9 hours ago
0 STARLINK-34316
1 64707U 25142M   25186.58335648 -.01166601  00000-0 -47438-2 0  9993
2 64707  69.9951 231.3251 0003837 279.0778  56.9516 15.88577685  2298
Epoch: 2025-07-05T14:00Z
TLE epoch observation values (Epoch: 2025-07-05T14:00:01.999Z)
Latitude
-22.64281°
Longitude
88.8121°
Altitude
312.922 km
Speed
7.72 km/s
True Right ascension
14h 50m 33s
True Declination
-22° 30' 46"
Sunlit
Object was in full shadow at epoch
Visualization orbit readout
Latitude
50.66735°
Longitude
122.58387°
Altitude
318.362 km
Speed
7.722 km/s
Apparent Right ascension
20h 30m 20s
Apparent Declination
9° 48' 56"
Sunlit
Object is in daylight
Visualization observer readout
Local Sidereal Time
11:20:33
Azimuth
48.167° ENE
Elevation
-26.572°
Doppler factor
1
Orbital elements
Apogee altitude
306.701 km
Perigee altitude
301.573 km
Semi-major axis
6,682.274 km
Eccentricity
0.00038
Inclination
69.9951°
RAAN
231.3251°
Arg. of periapsis
279.0778°
True anomaly
Unknown
Mean anomaly
56.9516°
Eccentric anomaly
Unknown
Mean motion
3.97335 °/min
Orbital period
90.6 mins
BSTAR
-0.0047438
Loading maneuver chart data...
Loading SW <> Apogee altitude chart data...
Loading historical data...
Loading historical data...
Loading historical data...
Loading historical data...
Loading historical data...
Loading historical data...
Loading historical data...

STARLINK-34316 Visibility

Observer location: undefined°, undefined°

STARLINK-34316 is likely not visible in the next few days
Span
Click to sort rows by Start time (UTC) header in descending order
Start Az.
Max El. time (UTC)
Max El. Az.
Max El.
End time (UTC)
End Az.
|